SL-8 DEB, 39695

Orbit data source: Space-Track

SL-8 DEB, 39695 is space debris in LEO originally from a launch on Tue, 12 Feb 1991 UTC launched from the Plesetsk Missile And Space Complex (PKMTR). Debris objects in space refer to the collection of defunct objects orbiting the Earth. Examples of debris include non-operational satellites, rocket bodies, and fragments generated from explosions, collisions, or faulty payload assembly.

Loading next visibility...
Identifier
39695, 1991-009DJ
Orbit
LEO
Country
Flag of CISCIS
Related business
Manufacturer
Unknown
Mission
Spacecraft
Bus & Motor
Unknown
Mass
Unknown
Launch date (UTC)
1991-02-12 (35 years ago)
Launch vehicle
Unknown
Launch site
Plesetsk Missile And Space Complex (PKMTR)
Object type
Payload
Rocket body
Debris
Shape & HBR
Unknown shape, 0.1 m
Radar Cross Section
Medium (>0.1 m² and <1 m²)

Expand to show TLE details & history
Last TLE update: 4 days ago

TLE from 4 days ago
0 SL-8 DEB
1 39695U 91009DJ  26169.97340299  .00000104  00000-0  11266-2 0  9991
2 39695  74.0615 267.8583 0139704 328.8372  30.4432 12.18911262291712
Epoch: 2026-06-18T23:21Z
TLE epoch observation values (Epoch: 2026-06-18T23:21:42.018Z)
Latitude
0.00003°
Longitude
10.22419°
Altitude
1,503.966 km
Speed
7.155 km/s
True Right ascension
17h 51m 25s
True Declination
0° 00' 00"
Sunlit
Object was in full shadow at epoch
Visualization orbit readout
Latitude
Unknown
Longitude
Unknown
Altitude
Unknown
Speed
Unknown
Apparent Right ascension
Unknown
Apparent Declination
Unknown
Sunlit
N/A
Visualization observer readout
Local Sidereal Time
06:59:35
Azimuth
Unknown
Elevation
Unknown
Doppler factor
Unknown
Orbital elements
Apogee altitude
1,706.545 km
Perigee altitude
1,483.765 km
Semi-major axis
7,973.292 km
Eccentricity
0.01397
Inclination
74.0615°
RAAN
267.8583°
Arg. of periapsis
328.8372°
True anomaly
31.26671°
Mean anomaly
30.4432°
Eccentric anomaly
30.85371°
Mean motion
3.0485 °/min
Orbital period
118.09 mins
BSTAR
0.0011266
Loading maneuver chart data...
Computing Atmospheric mass density...
Loading historical data...
Loading historical data...
Loading historical data...
Loading historical data...
Loading historical data...
Loading historical data...
Loading historical data...

Documentation

Showing up to 5 results
|